Date String (YYYY-MM-DD hh:mm:ss) UTC,Instrument flags,Ambient pressure (hPa),Sample flow (lpm),Bypass flow (lpm),Sample temperature (°C),Ambient temperature (°C),ASC tube jacket temperature (°C),LED temperature (°C),Box temperature (°C),Sample RH (%),Span deviation,Mass concentration (μg/m³),Mass concentration (μg/m³),Mass concentration (μg/m³)
DateTimeUTC,F1_M11,P_M11,Q1_M11,Q2_M11,T1_M11,T2_M11,T3_M11,T4_M11,T5_M11,U1_M11,ZSPAN_M11,X0_M11,X2_M11,X1_M11
2022-05-14 00:00:00,,0824.1,5.00,0.00,29.5,27.0,00.0,38.5,31.2,05.8,0000.0,0007.65,0003.62,0002.44
2022-05-14 00:01:00,,0824.1,5.00,0.00,29.5,27.4,00.0,38.4,31.2,06.0,0000.0,0007.67,0003.61,0002.43
2022-05-14 00:02:00,,0824.1,5.00,0.00,29.5,27.7,00.0,38.4,31.3,05.8,0000.0,0007.63,0003.58,0002.41
2022-05-14 00:03:00,,0824.1,4.99,0.00,29.5,27.9,00.0,38.4,31.4,05.6,0000.0,0007.69,0003.61,0002.41
2022-05-14 00:04:00,,0824.2,4.99,0.00,29.6,28.1,00.0,38.5,31.4,05.5,0000.0,0007.88,0003.59,0002.40
2022-05-14 00:05:00,,0824.2,5.01,0.00,29.6,28.2,00.0,38.5,31.4,05.5,0000.0,0007.82,0003.57,0002.38
2022-05-14 00:06:00,,0824.2,5.01,0.00,29.6,28.4,00.0,38.5,31.5,05.8,0000.0,0007.79,0003.56,0002.37
2022-05-14 00:07:00,,0824.2,5.00,0.00,29.7,28.5,00.0,38.5,31.5,06.1,0000.0,0007.95,0003.58,0002.36
2022-05-14 00:08:00,,0824.3,5.00,0.00,29.7,28.6,00.0,38.5,31.5,05.8,0000.0,0007.94,0003.54,0002.36
2022-05-14 00:09:00,,0824.3,5.00,0.00,29.7,28.7,00.0,38.5,31.6,05.8,0000.0,0008.31,0003.58,0002.37
2022-05-14 00:10:00,,0824.3,5.00,0.00,29.7,28.8,00.0,38.5,31.6,05.5,0000.0,0008.33,0003.60,0002.37
2022-05-14 00:11:00,,0824.3,5.00,0.00,29.8,28.8,00.0,38.6,31.7,05.5,0000.0,0008.39,0003.64,0002.36
2022-05-14 00:12:00,,0824.3,4.99,0.00,29.8,28.9,00.0,38.6,31.7,06.0,0000.0,0008.49,0003.64,0002.37
2022-05-14 00:13:00,,0824.3,5.01,0.00,29.9,28.9,00.0,38.6,31.7,05.9,0000.0,0008.97,0003.65,0002.38
2022-05-14 00:14:00,,0824.3,5.01,0.00,29.9,29.0,00.0,38.6,31.7,05.8,0000.0,0009.01,0003.64,0002.38
2022-05-14 00:15:00,,0824.3,5.00,0.00,29.9,28.9,00.0,38.7,31.7,05.9,0000.0,0009.01,0003.68,0002.40
2022-05-14 00:16:00,,0824.3,4.99,0.00,29.9,27.2,00.0,38.7,31.3,05.8,0000.0,0009.20,0003.74,0002.41
2022-05-14 00:17:00,,0824.3,5.00,0.00,29.7,26.1,00.0,38.6,31.1,05.8,0000.0,0009.19,0003.75,0002.42
2022-05-14 00:18:00,,0824.3,5.01,0.00,29.7,26.3,00.0,38.6,31.2,06.0,0000.0,0009.01,0003.73,0002.44
2022-05-14 00:19:00,,0824.3,5.00,0.00,29.6,26.7,00.0,38.6,31.2,06.2,0000.0,0009.05,0003.79,0002.45
2022-05-14 00:20:00,,0824.3,4.99,0.00,29.6,27.1,00.0,38.6,31.3,05.9,0000.0,0008.82,0003.77,0002.44
2022-05-14 00:21:00,,0824.3,4.99,0.00,29.6,27.5,00.0,38.5,31.4,06.4,0000.0,0008.83,0003.75,0002.44
2022-05-14 00:22:00,,0824.3,5.02,0.00,29.6,27.8,00.0,38.5,31.4,06.1,0000.0,0008.75,0003.73,0002.45
2022-05-14 00:23:00,,0824.3,5.00,0.00,29.6,28.0,00.0,38.5,31.4,05.9,0000.0,0008.60,0003.71,0002.46
2022-05-14 00:24:00,,0824.3,4.99,0.00,29.7,28.2,00.0,38.6,31.5,06.0,0000.0,0008.20,0003.71,0002.47
2022-05-14 00:25:00,,0824.3,5.00,0.00,29.7,28.4,00.0,38.6,31.5,06.0,0000.0,0008.07,0003.72,0002.50
2022-05-14 00:26:00,,0824.3,5.00,0.00,29.7,28.5,00.0,38.6,31.6,05.8,0000.0,0007.85,0003.70,0002.49
2022-05-14 00:27:00,,0824.3,5.00,0.00,29.8,28.6,00.0,38.6,31.6,06.0,0000.0,0007.60,0003.64,0002.49
2022-05-14 00:28:00,,0824.3,5.00,0.00,29.8,28.7,00.0,38.6,31.6,05.7,0000.0,0007.84,0003.65,0002.49
2022-05-14 00:29:00,,0824.3,5.00,0.00,29.8,28.8,00.0,38.6,31.7,05.7,0000.0,0007.84,0003.66,0002.50
2022-05-14 00:30:00,,0824.4,5.00,0.00,29.9,28.9,00.0,38.6,31.7,06.1,0000.0,0007.73,0003.64,0002.50
2022-05-14 00:31:00,,0824.5,5.00,0.00,29.9,29.0,00.0,38.7,31.8,05.7,0000.0,0007.74,0003.63,0002.54
2022-05-14 00:32:00,,0824.5,5.01,0.00,29.9,27.2,00.0,38.7,31.4,06.0,0000.0,0007.78,0003.64,0002.56
2022-05-14 00:33:00,,0824.4,5.00,0.00,29.7,25.2,00.0,38.6,30.9,05.5,0000.0,0007.83,0003.66,0002.56
2022-05-14 00:34:00,,0824.2,4.99,0.00,29.6,25.2,00.0,38.6,30.9,05.5,0000.0,0007.82,0003.67,0002.56
2022-05-14 00:35:00,,0824.4,5.00,0.00,29.5,25.7,00.0,38.5,31.0,05.7,0000.0,0007.80,0003.68,0002.56
2022-05-14 00:36:00,,0824.4,5.00,0.00,29.5,26.2,00.0,38.5,31.1,05.8,0000.0,0007.79,0003.65,0002.56
2022-05-14 00:37:00,,0824.4,5.00,0.00,29.5,26.6,00.0,38.5,31.1,05.6,0000.0,0007.74,0003.63,0002.58
2022-05-14 00:38:00,,0824.3,5.00,0.00,29.4,27.0,00.0,38.4,31.1,05.6,0000.0,0007.81,0003.67,0002.58
2022-05-14 00:39:00,,0824.3,5.00,0.00,29.4,27.3,00.0,38.4,31.2,05.5,0000.0,0007.61,0003.68,0002.57
2022-05-14 00:40:00,,0824.3,5.01,0.00,29.4,27.6,00.0,38.4,31.2,05.5,0000.0,0007.70,0003.70,0002.57
2022-05-14 00:41:00,,0824.3,4.99,0.00,29.4,27.8,00.0,38.4,31.2,05.7,0000.0,0007.95,0003.70,0002.57
2022-05-14 00:42:00,,0824.3,5.00,0.00,29.4,28.0,00.0,38.4,31.2,05.6,0000.0,0007.93,0003.71,0002.56
2022-05-14 00:43:00,,0824.2,5.00,0.00,29.4,28.1,00.0,38.4,31.2,05.6,0000.0,0007.91,0003.73,0002.56
2022-05-14 00:44:00,,0824.2,5.00,0.00,29.5,28.2,00.0,38.4,31.3,05.7,0000.0,0007.90,0003.70,0002.55
2022-05-14 00:45:00,,0824.1,5.00,0.00,29.5,28.3,00.0,38.4,31.3,05.9,0000.0,0008.89,0003.75,0002.55
2022-05-14 00:46:00,,0824.2,5.01,0.00,29.5,28.4,00.0,38.4,31.4,05.8,0000.0,0008.97,0003.81,0002.56
2022-05-14 00:47:00,,0824.3,4.99,0.00,29.6,28.5,00.0,38.4,31.4,05.7,0000.0,0009.05,0003.82,0002.56
2022-05-14 00:48:00,,0824.3,5.00,0.00,29.6,28.6,00.0,38.4,31.5,05.5,0000.0,0009.14,0003.83,0002.56
2022-05-14 00:49:00,,0824.3,4.99,0.00,29.6,28.7,00.0,38.5,31.5,05.6,0000.0,0009.11,0003.80,0002.57
2022-05-14 00:50:00,,0824.3,5.00,0.00,29.7,28.7,00.0,38.5,31.5,06.2,0000.0,0009.04,0003.77,0002.58
2022-05-14 00:51:00,,0824.3,5.00,0.00,29.7,28.8,00.0,38.5,31.5,06.0,0000.0,0009.05,0003.76,0002.57
2022-05-14 00:52:00,,0824.4,5.00,0.00,29.7,28.8,00.0,38.5,31.6,06.2,0000.0,0008.86,0003.79,0002.57
2022-05-14 00:53:00,,0824.3,5.00,0.00,29.7,28.9,00.0,38.5,31.6,05.8,0000.0,0008.83,0003.77,0002.55
2022-05-14 00:54:00,,0824.4,5.00,0.00,29.7,28.8,00.0,38.6,31.5,05.5,0000.0,0008.91,0003.76,0002.56
2022-05-14 00:55:00,,0824.3,5.01,0.00,29.7,26.8,00.0,38.5,31.1,05.5,0000.0,0009.01,0003.77,0002.57
2022-05-14 00:56:00,,0824.3,4.99,0.00,29.5,24.9,00.0,38.5,30.7,05.5,0000.0,0008.14,0003.71,0002.55
2022-05-14 00:57:00,,0824.3,5.00,0.00,29.4,25.0,00.0,38.4,30.7,05.7,0000.0,0007.82,0003.64,0002.55
2022-05-14 00:58:00,,0824.2,5.01,0.00,29.3,25.5,00.0,38.4,30.8,06.0,0000.0,0007.81,0003.64,0002.55
2022-05-14 00:59:00,,0824.2,4.98,0.00,29.3,26.0,00.0,38.3,30.9,05.8,0000.0,0007.80,0003.66,0002.55
